Location: Ferintosh
(52.7647°N, 112.9692°W)
Time: 15:15:16
(UTC+00:00)

Envisat - Visible Passes

Search period start: 08 June 2023 00:00
Search period end: 18 June 2023 00:00
Orbit: 763 x 765 km, 98.2° (Epoch: 08 June)

Date Brightness Start Highest point End Pass type
(mag) Time Alt. Az. Time Alt. Az. Time Alt. Az.
10 Jun 5.8 09:48:52 10° ENE 09:50:24 11° E 09:51:56 10° E visible
12 Jun 5.5 10:12:03 10° NE 10:15:30 18° E 10:18:56 10° SE visible
15 Jun 5.6 10:00:07 10° NE 10:02:53 14° E 10:05:37 10° ESE visible
